CW9417 Weather Reports


Display with metric or nautical units.
time (UTC)temp
F
wind
direction
speed
MPH
gust
MPH
rain 1hr
in
rain 24hr
in
rain mn
in
humidity
%
barometer
mb
20260510075548 59 69 1.0 4.0 0.00 0.00 0.00 41 1016.6
20260510075045 59 62 1.0 4.0 0.00 0.00 0.00 46 1016.6
20260510074540 60 135 1.0 4.0 0.00 0.00 0.00 41 1016.6
20260510074031 59 58 1.0 5.0 0.00 0.00 0.00 38 1016.6
20260510073532 59 28 1.0 5.0 0.00 0.00 0.00 35 1016.5
20260510073032 58 65 1.0 5.0 0.00 0.00 0.00 41 1016.5
20260510072531 59 44 1.0 5.0 0.00 0.00 0.00 43 1016.5
20260510072028 60 314 1.0 5.0 0.00 0.00 0.00 33 1016.5
20260510071531 59 91 0.0 5.0 0.00 0.00 0.00 31 1016.7
20260510071031 59 87 0.0 3.0 0.00 0.00 0.00 30 1016.7
20260510070530 59 66 1.0 3.0 0.00 0.00 0.00 31 1016.7
20260510070028 58 342 1.0 4.0 0.00 0.00 0.00 26 1016.7
20260510065528 58 89 1.0 4.0 0.00 0.00 0.00 25 1016.7
20260510065024 58 229 1.0 4.0 0.00 0.00 0.00 21 1016.7
20260510064524 57 45 1.0 4.0 0.00 0.00 0.00 22 1016.7
20260510064023 57 70 1.0 3.0 0.00 0.00 0.00 24 1016.7
20260510063522 57 85 0.0 3.0 0.00 0.00 0.00 25 1016.6
20260510063025 57 52 0.0 4.0 0.00 0.00 0.00 23 1016.6
20260510062524 56 88 1.0 5.0 0.00 0.00 0.00 20 1016.6
20260510062025 56 105 1.0 5.0 0.00 0.00 0.00 16 1016.6
20260510061521 55 74 1.0 4.0 0.00 0.00 0.00 12 1016.6
20260510061020 55 191 1.0 5.0 0.00 0.00 0.00 8 1016.6
20260510060527 54 62 0.0 5.0 0.00 0.00 0.00 1 1016.7
20260510060014 53 63 0.0 3.0 0.00 0.00 0.00 1 1016.7
20260510055738 53 11 0.0 2.0 0.00 0.00 0.00 1 1016.7
20260510055015 52 126 0.0 2.0 0.00 0.00 0.00 1 1016.8
20260510054514 51 82 0.0 2.0 0.00 0.00 0.00 1 1016.8
20260510054237 51 84 0.0 2.0 0.00 0.00 0.00 1 1016.8
20260510053512 51 141 0.0 2.0 0.00 0.00 0.00 1 1016.7
20260510053016 50 257 0.0 2.0 0.00 0.00 0.00 1 1016.7
20260510052516 50 131 0.0 4.0 0.00 0.00 0.00 1 1016.8
20260510052232 50 50 1.0 4.0 0.00 0.00 0.00 1 1016.7
20260510051512 50 56 1.0 3.0 0.00 0.00 0.00 1 1016.7
20260510051011 50 28 0.0 3.0 0.00 0.00 0.00 1 1016.6
20260510050736 50 87 0.0 3.0 0.00 0.00 0.00 1 1016.5
20260510050010 50 266 0.0 2.0 0.00 0.00 0.00 1 1016.4
20260510045515 50 53 0.0 2.0 0.00 0.00 0.00 1 1016.4
20260510045457 50 188 1.0 3.0 0.00 0.00 0.00 1 1016.4
20260510044509 50 76 1.0 4.0 0.00 0.00 0.00 1 1016.4
20260510044014 50 41 0.0 4.0 0.00 0.00 0.00 1 1016.3
20260510043515 50 84 0.0 3.0 0.00 0.00 0.00 1 1016.4
20260510043011 50 91 0.0 3.0 0.00 0.00 0.00 1 1016.4
20260510042741 50 96 0.0 2.0 0.00 0.00 0.00 1 1016.4
20260510042015 50 26 0.0 4.0 0.00 0.00 0.00 1 1016.4
20260510041511 49 37 0.0 4.0 0.00 0.00 0.00 1 1016.4
20260510041018 49 220 0.0 1.0 0.00 0.00 0.00 1 1016.4
20260510040511 49 107 0.0 1.0 0.00 0.00 0.00 1 1016.5
20260510040018 49 121 0.0 1.0 0.00 0.00 0.00 1 1016.5
20260510035512 49 106 0.0 1.0 0.00 0.00 0.00 1 1016.5
20260510035012 50 96 0.0 1.0 0.00 0.00 0.00 1 1016.5
20260510034514 50 94 0.0 1.0 0.00 0.00 0.00 1 1016.6
20260510034258 50 84 0.0 2.0 0.00 0.00 0.00 1 1016.6
20260510033509 50 54 0.0 2.0 0.00 0.00 0.00 1 1016.6
20260510033007 50 98 0.0 0.0 0.00 0.00 0.00 1 1016.7
20260510032506 50 75 0.0 1.0 0.00 0.00 0.00 1 1016.9
20260510032008 50 75 0.0 1.0 0.00 0.00 0.00 1 1017.0
20260510031510 50 107 0.0 0.0 0.00 0.00 0.00 1 1016.9
20260510031002 51 106 0.0 0.0 0.00 0.00 0.00 1 1016.9
20260510030515 51 106 0.0 0.0 0.00 0.00 0.00 1 1017.0
20260510025959 51 106 0.0 0.0 0.00 0.00 0.00 1 1017.0
20260510025501 51 105 0.0 1.0 0.00 0.00 0.00 1 1017.0
20260510025002 51 39 0.0 1.0 0.00 0.00 0.00 1 1016.9
20260510024729 51 63 0.0 1.0 0.00 0.00 0.00 1 1016.9
20260510023955 51 60 0.0 3.0 0.00 0.00 0.00 1 1016.9
20260510023455 51 60 0.0 3.0 0.00 0.00 0.00 1 1016.8
20260510022952 51 81 0.0 2.0 0.00 0.00 0.00 1 1016.8
20260510022725 51 113 0.0 2.0 0.00 0.00 0.00 1 1016.8
20260510021946 51 114 0.0 2.0 0.00 0.00 0.00 1 1016.9
20260510021447 51 85 0.0 2.0 0.00 0.00 0.00 1 1017.0
20260510020942 51 103 0.0 1.0 0.00 0.00 0.00 1 1016.9
20260510020435 51 55 0.0 1.0 0.00 0.00 0.00 1 1016.8
20260510015928 51 50 0.0 1.0 0.00 0.00 0.00 1 1016.9
20260510015424 51 58 0.0 3.0 0.00 0.00 0.00 1 1016.9
20260510014916 51 45 0.0 3.0 0.00 0.00 0.00 1 1016.9
20260510014411 50 90 0.0 3.0 0.00 0.00 0.00 1 1017.0
20260510013905 50 31 0.0 2.0 0.00 0.00 0.00 1 1016.9
20260510013359 50 349 0.0 2.0 0.00 0.00 0.00 1 1017.0
20260510012853 50 99 0.0 2.0 0.00 0.00 0.00 1 1017.0
20260510012345 50 131 0.0 2.0 0.00 0.00 0.00 1 1017.1
20260510012104 50 74 0.0 2.0 0.00 0.00 0.00 1 1017.0
20260510011334 50 346 0.0 3.0 0.00 0.00 0.00 1 1017.0
20260510010839 50 195 0.0 3.0 0.00 0.00 0.00 1 1017.0
20260510010321 51 14 0.0 3.0 0.00 0.00 0.00 1 1017.0
20260510005814 51 20 0.0 3.0 0.00 0.00 0.00 1 1017.1
20260510005532 51 91 0.0 2.0 0.00 0.00 0.00 1 1017.1
20260510004802 51 108 0.0 2.0 0.00 0.00 0.00 1 1017.1
20260510004522 51 27 0.0 2.0 0.00 0.00 0.00 1 1017.1
20260510003751 51 123 0.0 2.0 0.00 0.00 0.00 1 1017.1
20260510003244 51 48 0.0 2.0 0.00 0.00 0.00 1 1017.2
20260510002738 51 122 0.0 4.0 0.00 0.00 0.00 1 1017.3
20260510002234 51 121 0.0 4.0 0.00 0.00 0.00 1 1017.2
20260510001951 51 120 0.0 2.0 0.00 0.00 0.00 1 1017.2
20260510001222 51 77 0.0 2.0 0.00 0.00 0.00 1 1017.3
20260510000715 51 54 0.0 2.0 0.00 0.00 0.00 1 1017.4
20260510000211 51 53 0.0 2.0 0.00 0.00 0.00 1 1017.4
20260509235703 51 118 0.0 2.0 0.00 0.00 0.00 1 1017.4
20260509235156 51 41 0.0 2.0 0.00 0.00 0.00 1 1017.3
20260509234918 51 85 0.0 2.0 0.00 0.00 0.00 1 1017.4
20260509234145 51 101 0.0 1.0 0.00 0.00 0.00 1 1017.4
20260509233639 51 179 0.0 1.0 0.00 0.00 0.00 1 1017.5
20260509233133 52 109 0.0 1.0 0.00 0.00 0.00 1 1017.5
20260509232625 52 120 0.0 2.0 0.00 0.00 0.00 1 1017.6
20260509232122 52 89 0.0 2.0 0.00 0.00 0.00 1 1017.5
20260509231614 52 78 0.0 1.0 0.00 0.00 0.00 1 1017.5
20260509231109 52 224 0.0 1.0 0.00 0.00 0.00 1 1017.5
20260509230602 53 120 0.0 1.0 0.00 0.00 0.00 1 1017.4
20260509230112 53 15 0.0 1.0 0.00 0.00 0.00 1 1017.4
20260509225550 53 25 0.0 2.0 0.00 0.00 0.00 1 1017.5
20260509225044 53 359 0.0 3.0 0.00 0.00 0.00 1 1017.6
20260509224539 53 14 0.0 3.0 0.00 0.00 0.00 1 1017.5
20260509224031 53 153 0.0 1.0 0.00 0.00 0.00 1 1017.5
20260509223744 54 148 0.0 1.0 0.00 0.00 0.00 1 1017.6
20260509223020 54 106 0.0 0.0 0.00 0.00 0.00 2 1017.6
20260509223000 54 97 0.0 1.0 0.00 0.00 0.00 3 1017.7
20260509222011 54 95 0.0 3.0 0.00 0.00 0.00 5 1017.7
20260509221502 54 64 1.0 6.0 0.00 0.00 0.00 8 1017.6
20260509220957 54 11 0.0 6.0 0.00 0.00 0.00 10 1017.6
20260509220722 54 49 0.0 1.0 0.00 0.00 0.00 10 1017.7
20260509215944 55 47 0.0 1.0 0.00 0.00 0.00 12 1017.7
20260509215440 55 87 0.0 2.0 0.00 0.00 0.00 12 1017.7
20260509214934 55 58 0.0 2.0 0.00 0.00 0.00 14 1017.8
20260509214427 55 163 0.0 2.0 0.00 0.00 0.00 16 1017.7
20260509213920 55 354 0.0 2.0 0.00 0.00 0.00 18 1017.8
20260509213633 55 102 0.0 2.0 0.00 0.00 0.00 19 1017.8
20260509212909 55 60 0.0 2.0 0.00 0.00 0.00 22 1017.9
20260509212401 56 80 0.0 2.0 0.00 0.00 0.00 24 1017.8
20260509211856 56 59 0.0 2.0 0.00 0.00 0.00 23 1017.9
20260509211620 56 86 0.0 2.0 0.00 0.00 0.00 24 1017.8
20260509210845 56 93 0.0 2.0 0.00 0.00 0.00 25 1017.8
20260509210340 56 90 0.0 2.0 0.00 0.00 0.00 27 1017.8
20260509205832 56 85 0.0 3.0 0.00 0.00 0.00 27 1017.8
20260509205327 56 47 0.0 3.0 0.00 0.00 0.00 28 1017.7
20260509204820 57 89 1.0 5.0 0.00 0.00 0.00 30 1017.8
20260509204314 57 26 1.0 5.0 0.00 0.00 0.00 31 1017.8
20260509203810 57 133 1.0 5.0 0.00 0.00 0.00 31 1017.8
20260509203530 57 120 1.0 4.0 0.00 0.00 0.00 30 1017.9
20260509202756 57 322 1.0 4.0 0.00 0.00 0.00 33 1017.8
20260509202251 57 65 0.0 3.0 0.00 0.00 0.00 34 1017.9
20260509201746 57 93 0.0 1.0 0.00 0.00 0.00 33 1017.8
20260509201240 58 86 0.0 2.0 0.00 0.00 0.00 35 1017.9
20260509200957 58 83 0.0 2.0 0.00 0.00 0.00 36 1017.8
20260509200227 58 37 0.0 1.0 0.00 0.00 0.00 38 1017.8
20260509195719 58 153 0.0 2.0 0.00 0.00 0.00 40 1017.8
20260509195214 58 252 0.0 2.0 0.00 0.00 0.00 42 1017.8
20260509194709 58 41 0.0 2.0 0.00 0.00 0.00 44 1017.7
20260509194204 59 148 0.0 2.0 0.00 0.00 0.00 45 1017.7
20260509193914 59 11 0.0 2.0 0.00 0.00 0.00 48 1017.6
20260509193151 59 154 0.0 3.0 0.00 0.00 0.00 50 1017.5
20260509192645 59 146 0.0 3.0 0.00 0.00 0.00 52 1017.5
20260509192138 59 67 0.0 3.0 0.00 0.00 0.00 54 1017.6
20260509191632 60 251 0.0 1.0 0.00 0.00 0.00 56 1017.5
20260509191125 60 31 0.0 2.0 0.00 0.00 0.00 57 1017.4
20260509190619 60 147 1.0 3.0 0.00 0.00 0.00 58 1017.4
20260509190114 60 94 1.0 3.0 0.00 0.00 0.00 58 1017.4
20260509185608 60 46 1.0 4.0 0.00 0.00 0.00 59 1017.3
20260509185108 61 123 1.0 4.0 0.00 0.00 0.00 58 1017.3
20260509184557 61 308 1.0 4.0 0.00 0.00 0.00 58 1017.3
20260509184051 61 73 1.0 3.0 0.00 0.00 0.00 58 1017.3
20260509183810 62 254 1.0 3.0 0.00 0.00 0.00 57 1017.3
20260509183528 62 257 1.0 4.0 0.00 0.00 0.00 57 1017.3
20260509182531 62 95 1.0 4.0 0.00 0.00 0.00 57 1017.3
20260509182033 62 68 1.0 6.0 0.00 0.00 0.00 57 1017.3
20260509181531 63 79 1.0 6.0 0.00 0.00 0.00 55 1017.3
20260509181031 64 28 1.0 3.0 0.00 0.00 0.00 55 1017.4
20260509180531 64 1 1.0 3.0 0.00 0.00 0.00 54 1017.3
20260509180316 64 48 1.0 4.0 0.00 0.00 0.00 54 1017.3
20260509175535 64 135 1.0 4.0 0.00 0.00 0.00 53 1017.4
20260509175033 64 113 1.0 6.0 0.00 0.00 0.00 53 1017.4
20260509174535 65 65 1.0 6.0 0.00 0.00 0.00 52 1017.3
20260509174515 65 45 0.0 5.0 0.00 0.00 0.00 50 1017.4
20260509173757 65 30 1.0 5.0 0.00 0.00 0.00 49 1017.4
20260509173032 65 50 1.0 4.0 0.00 0.00 0.00 50 1017.4
20260509172751 65 8 1.0 4.0 0.00 0.00 0.00 49 1017.4
20260509172028 65 144 0.0 4.0 0.00 0.00 0.00 49 1017.5
20260509171542 65 250 1.0 4.0 0.00 0.00 0.00 49 1017.5
20260509171028 65 41 1.0 4.0 0.00 0.00 0.00 47 1017.4
20260509170531 65 48 1.0 6.0 0.00 0.00 0.00 49 1017.3
20260509170026 65 113 1.0 6.0 0.00 0.00 0.00 48 1017.3
20260509165527 66 99 0.0 3.0 0.00 0.00 0.00 47 1017.3
20260509165024 65 27 1.0 6.0 0.00 0.00 0.00 47 1017.3
20260509164523 65 191 2.0 6.0 0.00 0.00 0.00 48 1017.3
20260509164021 66 122 1.0 5.0 0.00 0.00 0.00 46 1017.3
20260509163745 66 44 1.0 3.0 0.00 0.00 0.00 47 1017.3
20260509163240 66 72 1.0 4.0 0.00 0.00 0.00 47 1017.2
20260509162521 65 63 2.0 4.0 0.00 0.00 0.00 48 1017.2
20260509162020 65 36 2.0 6.0 0.00 0.00 0.00 47 1017.2
20260509161517 65 119 2.0 6.0 0.00 0.00 0.00 47 1017.2
20260509161241 65 89 1.0 5.0 0.00 0.00 0.00 47 1017.3
20260509160747 65 143 2.0 5.0 0.00 0.00 0.00 47 1017.4
20260509160021 65 107 2.0 6.0 0.00 0.00 0.00 48 1017.3
20260509155514 66 114 2.0 6.0 0.00 0.00 0.00 46 1017.4
20260509155014 65 240 2.0 5.0 0.00 0.00 0.00 45 1017.4
20260509154516 65 54 2.0 7.0 0.00 0.00 0.00 48 1017.2
20260509154018 65 350 2.0 7.0 0.00 0.00 0.00 46 1017.2
20260509153516 65 123 2.0 7.0 0.00 0.00 0.00 46 1017.3
20260509153013 65 13 2.0 7.0 0.00 0.00 0.00 46 1017.4
20260509152514 66 95 2.0 6.0 0.00 0.00 0.00 46 1017.6
20260509152016 66 64 2.0 5.0 0.00 0.00 0.00 46 1017.6
20260509151518 66 81 2.0 6.0 0.00 0.00 0.00 47 1017.5
20260509151237 66 122 2.0 6.0 0.00 0.00 0.00 47 1017.5
20260509150511 67 26 2.0 5.0 0.00 0.00 0.00 46 1017.5
20260509150010 67 123 2.0 8.0 0.00 0.00 0.00 44 1017.5
20260509145512 67 75 2.0 8.0 0.00 0.00 0.00 42 1017.6
20260509145010 67 16 1.0 5.0 0.00 0.00 0.00 45 1017.6
20260509144508 68 33 1.0 4.0 0.00 0.00 0.00 45 1017.7
20260509144015 67 78 0.0 4.0 0.00 0.00 0.00 45 1017.7
20260509143729 67 98 1.0 5.0 0.00 0.00 0.00 47 1017.8
20260509143232 66 47 1.0 5.0 0.00 0.00 0.00 47 1017.8
20260509142501 66 30 1.0 3.0 0.00 0.00 0.00 48 1018.0
20260509141955 65 108 2.0 6.0 0.00 0.00 0.00 45 1018.1
20260509141450 65 105 3.0 7.0 0.00 0.00 0.00 48 1018.1
20260509140946 65 107 2.0 7.0 0.00 0.00 0.00 46 1018.3
20260509140439 67 108 1.0 7.0 0.00 0.00 0.00 45 1018.2
20260509135934 67 194 1.0 4.0 0.00 0.00 0.00 48 1018.2
20260509135426 67 79 1.0 4.0 0.00 0.00 0.00 47 1018.3
20260509134921 67 146 0.0 3.0 0.00 0.00 0.00 48 1018.3
20260509134419 66 236 1.0 8.0 0.00 0.00 0.00 48 1018.3
20260509133929 66 46 2.0 8.0 0.00 0.00 0.00 49 1018.3
20260509133415 66 35 2.0 7.0 0.00 0.00 0.00 48 1018.3
20260509132929 66 242 1.0 4.0 0.00 0.00 0.00 49 1018.3
20260509132414 66 18 1.0 5.0 0.00 0.00 0.00 48 1018.4
20260509131913 66 220 2.0 7.0 0.00 0.00 0.00 48 1018.3
20260509131410 66 96 2.0 7.0 0.00 0.00 0.00 49 1018.4
20260509130914 66 120 1.0 6.0 0.00 0.00 0.00 48 1018.5
20260509130409 67 12 1.0 6.0 0.00 0.00 0.00 48 1018.5
20260509130148 66 318 1.0 5.0 0.00 0.00 0.00 49 1018.6
20260509125409 66 34 1.0 6.0 0.00 0.00 0.00 45 1018.7
20260509124908 66 287 1.0 6.0 0.00 0.00 0.00 47 1018.8
20260509124407 66 252 1.0 4.0 0.00 0.00 0.00 51 1018.9
20260509123907 65 76 1.0 4.0 0.00 0.00 0.00 49 1018.9
20260509123631 65 160 2.0 6.0 0.00 0.00 0.00 51 1018.9
20260509123143 65 95 2.0 6.0 0.00 0.00 0.00 49 1019.0
20260509122411 65 120 2.0 5.0 0.00 0.00 0.00 49 1019.0
20260509121905 66 79 1.0 5.0 0.00 0.00 0.00 48 1019.1
20260509121355 66 50 1.0 5.0 0.00 0.00 0.00 47 1019.1
20260509120848 66 286 1.0 5.0 0.00 0.00 0.00 51 1019.2
20260509120357 65 72 2.0 6.0 0.00 0.00 0.00 49 1019.2
20260509120108 65 83 2.0 6.0 0.00 0.00 0.00 49 1019.2
20260509115332 65 131 1.0 7.0 0.00 0.00 0.00 49 1019.2
20260509114825 65 24 1.0 7.0 0.00 0.00 0.00 48 1019.3
20260509114319 65 30 0.0 3.0 0.00 0.00 0.00 47 1019.3
20260509114259 65 256 1.0 6.0 0.00 0.00 0.00 49 1019.3
20260509113309 64 162 2.0 6.0 0.00 0.00 0.00 49 1019.5
20260509112801 64 98 2.0 10.0 0.00 0.00 0.00 50 1019.5
20260509112256 64 25 2.0 10.0 0.00 0.00 0.00 50 1019.6
20260509111751 64 221 2.0 5.0 0.00 0.00 0.00 53 1019.5
20260509111742 64 129 2.0 6.0 0.00 0.00 0.00 54 1019.5
20260509110736 63 151 3.0 9.0 0.00 0.00 0.00 55 1019.5
20260509110231 63 44 3.0 8.0 0.00 0.00 0.00 55 1019.4
20260509105724 63 127 3.0 8.0 0.00 0.00 0.00 55 1019.5
20260509105218 63 98 3.0 8.0 0.00 0.00 0.00 55 1019.6
20260509104714 63 119 3.0 8.0 0.00 0.00 0.00 56 1019.5
20260509104438 63 41 3.0 8.0 0.00 0.00 0.00 54 1019.6
20260509103702 62 111 3.0 8.0 0.00 0.00 0.00 54 1019.7
20260509103422 62 108 3.0 8.0 0.00 0.00 0.00 55 1019.7
20260509102648 62 20 3.0 6.0 0.00 0.00 0.00 56 1019.7
20260509102144 62 116 3.0 9.0 0.00 0.00 0.00 56 1019.8
20260509101637 62 103 3.0 9.0 0.00 0.00 0.00 57 1019.8
20260509101134 63 115 2.0 7.0 0.00 0.00 0.00 56 1019.8
20260509100626 62 3 2.0 7.0 0.00 0.00 0.00 57 1019.8
20260509100120 62 113 3.0 9.0 0.00 0.00 0.00 58 1019.8
20260509095617 62 124 3.0 9.0 0.00 0.00 0.00 58 1019.8
20260509095108 61 76 3.0 6.0 0.00 0.00 0.00 59 1019.8
20260509094602 61 108 3.0 6.0 0.00 0.00 0.00 58 1019.8
20260509094312 61 105 3.0 6.0 0.00 0.00 0.00 59 1019.9
20260509093812 61 104 3.0 8.0 0.00 0.00 0.00 58 1019.9
20260509093046 61 86 3.0 6.0 0.00 0.00 0.00 59 1019.9
20260509092538 60 116 3.0 7.0 0.00 0.00 0.00 59 1020.0
20260509092036 60 83 4.0 8.0 0.00 0.00 0.00 59 1019.9
20260509091525 60 118 3.0 7.0 0.00 0.00 0.00 58 1019.9
20260509091023 60 107 2.0 6.0 0.00 0.00 0.00 58 1019.9
20260509090512 60 115 3.0 7.0 0.00 0.00 0.00 56 1019.9
20260509090224 60 115 4.0 7.0 0.00 0.00 0.00 58 1019.9
20260509085503 60 106 3.0 7.0 0.00 0.00 0.00 57 1019.9
20260509084954 60 103 3.0 8.0 0.00 0.00 0.00 57 1019.9
20260509084449 60 71 3.0 8.0 0.00 0.00 0.00 56 1019.9
20260509083942 60 96 3.0 7.0 0.00 0.00 0.00 55 1019.9
20260509083437 59 62 4.0 7.0 0.00 0.00 0.00 55 1019.9
20260509082932 59 136 3.0 7.0 0.00 0.00 0.00 54 1019.9
20260509082429 59 98 2.0 6.0 0.00 0.00 0.00 53 1019.9
20260509082155 59 99 3.0 6.0 0.00 0.00 0.00 48 1019.9
20260509081413 59 106 4.0 9.0 0.00 0.00 0.00 49 1019.8
20260509080909 58 89 4.0 9.0 0.00 0.00 0.00 51 1019.9
20260509080404 59 117 4.0 7.0 0.00 0.00 0.00 48 1019.9
20260509075857 59 108 3.0 7.0 0.00 0.00 0.00 47 1019.9